Retour au catalogue

ARIANE 42P+ DEB

LostHEO
NORAD 34197·DEBRIS·🇫🇷 France

Lancé Oct 28, 1992 depuis Guiana Space Centre

Loading…

Prochains Passages (prochaines 24 heures)

TLE

PériméSource: Space-Track

Époque: Jan 20, 2026, 15:41 UTC

1 34197U 92072AD  26020.65374520  .00000810  00000-0  18053-2 0  9994
2 34197  13.0830 200.9337 5744190 236.7174  54.9220  4.22478608184438

Suivez ARIANE 42P+ DEB en temps réel avec AllMySat

Download on the App Store